SCOUT A R/B, 2413

Orbit data source: Space-Track

SCOUT A R/B, 2413 is space debris in LEO originally from a launch on Thu, 18 Aug 1966 UTC launched from the Air Force Western Test Range (AFWTR). Debris objects in space refer to the collection of defunct objects orbiting the Earth. Examples of debris include non-operational satellites, rocket bodies, and fragments generated from explosions, collisions, or faulty payload assembly.

Loading next visibility...
Identifier
2413, 1966-076B
Orbit
LEO
Country
Flag of USUS
Related business
Manufacturer
ABL
Mission
Spacecraft
Bus & Motor
ALTAIR, Unknown motor
Mass
33 kg wet, 33 kg dry
Launch date (UTC)
1966-08-18 (59 years ago)
Launch vehicle
Unknown
Launch site
Air Force Western Test Range (AFWTR)
Object type
Payload
Rocket body
Debris
Shape & HBR
Unknown
Radar Cross Section
Medium (>0.1 m² and <1 m²)

Expand to show TLE details & history
Last TLE update: 12 hours ago

TLE from 12 hours ago
0 SCOUT A R/B
1 02413U 66076B   26035.16789640  .00000103  00000-0  13686-3 0  9993
2 02413  88.8433  87.3146 0034308  91.1713 269.3370 13.51852769930688
Epoch: 2026-02-04T04:01Z
TLE epoch observation values (Epoch: 2026-02-04T04:01:46.248Z)
Latitude
Longitude
-107.46646°
Altitude
1,068.787 km
Speed
7.317 km/s
True Right ascension
05h 49m 15s
True Declination
0° 00' 00"
Sunlit
Object was in full shadow at epoch
Visualization orbit readout
Latitude
Unknown
Longitude
Unknown
Altitude
Unknown
Speed
Unknown
Apparent Right ascension
Unknown
Apparent Declination
Unknown
Sunlit
N/A
Visualization observer readout
Local Sidereal Time
17:32:07
Azimuth
Unknown
Elevation
Unknown
Doppler factor
Unknown
Orbital elements
Apogee altitude
1,088.028 km
Perigee altitude
1,036.973 km
Semi-major axis
7,440.637 km
Eccentricity
0.00343
Inclination
88.8433°
RAAN
87.3146°
Arg. of periapsis
91.1713°
True anomaly
268.94391°
Mean anomaly
269.337°
Eccentric anomaly
269.14045°
Mean motion
3.38164 °/min
Orbital period
106.46 mins
BSTAR
0.00013686
Loading maneuver chart data...
Computing Atmospheric mass density...
Loading historical data...
Loading historical data...
Loading historical data...
Loading historical data...
Loading historical data...
Loading historical data...
Loading historical data...

Documentation

Showing up to 5 results
|